Location: Ch�teau-Arnoux
(44.0814°N, 6.0027°E)
Time: 18:28:17
(UTC+00:00)

Cosmos 2360 Rocket - Pass Details

Date: 15 November 2019
Orbit: 832 x 847 km, 71.0° (Epoch: 08 December)

Event Time Altitude Azimuth Distance (km) Brightness Sun altitude
Exits shadow 05:19:37 -1° 338° (NNW) 3,475 5.1 -12.8°
Rises 05:19:47 0° 338° (NNW) 3,417 5.0 -12.8°
Reaches altitude 10° 05:22:19 10° 344° (NNW) 2,479 4.3 -12.4°
Maximum altitude 05:27:51 51° 60° (ENE) 1,062 3.1 -11.4°
Drops below altitude 10° 05:33:21 10° 135° (SE) 2,463 5.7 -10.5°
Sets 05:35:52 0° 141° (SE) 3,393 6.3 -10.0°
